STARLINK-34723

Last updated on Tue Aug 19 2025 00:02:05 GMT+0000 (Coordinated Universal Time)

1 64842U 25152A 25230.58335648 .00040486 00000+0 10352-2 0 9997 2 64842 97.6038 84.1854 0001565 90.8856 276.5743 15.39330750 5535
UTC large
Height (km)
Speed (km/s)
/
Latitude / Longitude
Inclination (degrees)
Orbital Period (minutes)
Azimuth
Elevation
Range (km)
Doppler Factor

Next 0 passes for location: London (51.5072 / 0.1276)

Sorry there are no passes over London.